Boone, IA

6:40 PM CDT on April 21, 2018 (GMT -0500)
Boone Municipal

Weather History for KBNW - November, 2013

Change the Weather History Date:

Saturday, November 9, 2013

  Actual Average Record
Temperature  
Mean Temperature 45 °F -  
Max Temperature 55 °F 47 °F 77 °F (1999)
Min Temperature 35 °F 27 °F 3 °F (1991)
Degree Days  
Heating Degree Days 20    
Moisture  
Dew Point 34 °F    
Average Humidity 62    
Maximum Humidity 76    
Minimum Humidity 44    
Precipitation  
Precipitation 0.00 in - - ()
Sea Level Pressure  
Sea Level Pressure 30.03 in    
Wind  
Wind Speed 15 mph (WNW)    
Max Wind Speed 22 mph    
Max Gust Speed 34 mph    
Visibility 10 miles    
Events      
Averages and records for this station are not official NWS values.
T = Trace of Precipitation, MM = Missing Value Source: NWS Daily Summary

Daily Weather History Graph

Daily Weather History Graph

Search for Another Location

Airport or City:

Astronomy

Nov. 09, 2013 Rise Set
Actual Time 6:58 AM CST 4:59 PM CST
Civil Twilight 6:28 AM CST 5:29 PM CST
Nautical Twilight 5:55 AM CST 6:02 PM CST
Astronomical Twilight 5:22 AM CST 6:35 PM CST
Moon 12:34 PM CST (11/9) 11:32 PM CST (11/9)
Length of Visible Light 11h 00m
Length of Day
10h 01m
Waxing Crescent, 44% of the Moon is Illuminated
Nov 9
Waxing Crescent
Nov 9
First Quarter
Nov 17
Full
Nov 25
Last Quarter
Dec 2
New

Hourly Weather History & Observations

Time (CST) Temp. Windchill Dew Point Humidity Pressure Visibility Wind Dir Wind Speed Gust Speed Precip Events Conditions
12:15 AM 48.2 °F - 37.4 °F 66% 29.81 in 10.0 mi West 15.0 mph - N/A   Clear
12:35 AM 48.2 °F - 35.6 °F 62% 29.82 in 10.0 mi West 16.1 mph 24.2 mph N/A   Clear
12:55 AM 50.0 °F - 35.6 °F 58% 29.82 in 10.0 mi West 17.3 mph 24.2 mph N/A   Clear
1:15 AM 48.2 °F - 35.6 °F 62% 29.82 in 10.0 mi West 17.3 mph 23.0 mph N/A   Clear
1:35 AM 48.2 °F - 35.6 °F 62% 29.82 in 10.0 mi West 15.0 mph - N/A   Clear
1:55 AM 46.4 °F 41.1 °F 35.6 °F 66% 29.83 in 10.0 mi West 11.5 mph 19.6 mph N/A   Clear
2:15 AM 46.4 °F 40.4 °F 35.6 °F 66% 29.84 in 10.0 mi West 13.8 mph 20.7 mph N/A   Clear
2:35 AM 46.4 °F 40.4 °F 35.6 °F 66% 29.84 in 10.0 mi West 13.8 mph - N/A   Clear
2:55 AM 46.4 °F 40.7 °F 33.8 °F 62% 29.85 in 10.0 mi West 12.7 mph - N/A   Clear
3:15 AM 46.4 °F 40.7 °F 33.8 °F 62% 29.85 in 10.0 mi West 12.7 mph - N/A   Clear
3:35 AM 44.6 °F 38.1 °F 33.8 °F 66% 29.85 in 10.0 mi West 13.8 mph - N/A   Clear
3:55 AM 44.6 °F 38.4 °F 33.8 °F 66% 29.86 in 10.0 mi West 12.7 mph - N/A   Clear
4:15 AM 42.8 °F 36.6 °F 33.8 °F 70% 29.86 in 10.0 mi West 11.5 mph - N/A   Clear
4:35 AM 42.8 °F 37.0 °F 33.8 °F 70% 29.87 in 10.0 mi WSW 10.4 mph - N/A   Clear
4:55 AM 42.8 °F 36.6 °F 33.8 °F 70% 29.88 in 10.0 mi West 11.5 mph - N/A   Clear
5:15 AM 42.8 °F 36.6 °F 33.8 °F 70% 29.89 in 10.0 mi West 11.5 mph - N/A   Clear
5:35 AM 42.8 °F 36.6 °F 33.8 °F 70% 29.90 in 10.0 mi West 11.5 mph - N/A   Clear
5:55 AM 41.0 °F 34.7 °F 33.8 °F 76% 29.91 in 10.0 mi West 10.4 mph - N/A   Clear
6:15 AM 42.8 °F 36.6 °F 33.8 °F 70% 29.91 in 10.0 mi West 11.5 mph 18.4 mph N/A   Clear
6:35 AM 42.8 °F 35.1 °F 32.0 °F 66% 29.92 in 10.0 mi West 16.1 mph - N/A   Clear
6:55 AM 42.8 °F 35.8 °F 32.0 °F 66% 29.93 in 10.0 mi West 13.8 mph 20.7 mph N/A   Clear
7:15 AM 42.8 °F 35.8 °F 32.0 °F 66% 29.94 in 10.0 mi West 13.8 mph 19.6 mph N/A   Clear
7:35 AM 42.8 °F 36.6 °F 33.8 °F 70% 29.95 in 10.0 mi West 11.5 mph 18.4 mph N/A   Clear
7:55 AM 44.6 °F 37.2 °F 32.0 °F 61% 29.97 in 10.0 mi West 17.3 mph 24.2 mph N/A   Clear
8:15 AM 46.4 °F 39.2 °F 33.8 °F 62% 29.97 in 10.0 mi WNW 18.4 mph - N/A   Clear
8:35 AM 46.4 °F 39.5 °F 33.8 °F 62% 29.98 in 10.0 mi WNW 17.3 mph 26.5 mph N/A   Clear
8:55 AM 46.4 °F 39.2 °F 33.8 °F 62% 29.99 in 10.0 mi WNW 18.4 mph 29.9 mph N/A   Clear
9:15 AM 48.2 °F - 35.6 °F 62% 30.00 in 10.0 mi WNW 15.0 mph 21.9 mph N/A   Clear
9:35 AM 48.2 °F - 35.6 °F 62% 30.01 in 10.0 mi WNW 18.4 mph 26.5 mph N/A   Clear
9:55 AM 48.2 °F - 35.6 °F 62% 30.01 in 10.0 mi WNW 15.0 mph 29.9 mph N/A   Clear
10:15 AM 48.2 °F - 37.4 °F 66% 30.02 in 10.0 mi WNW 13.8 mph 28.8 mph N/A   Clear
10:35 AM 48.2 °F - 37.4 °F 66% 30.03 in 10.0 mi WNW 19.6 mph 28.8 mph N/A   Clear
10:55 AM 48.2 °F - 37.4 °F 66% 30.04 in 10.0 mi WNW 19.6 mph 27.6 mph N/A   Clear
11:15 AM 50.0 °F - 37.4 °F 62% 30.05 in 10.0 mi WNW 17.3 mph 29.9 mph N/A   Clear
11:35 AM 50.0 °F - 37.4 °F 62% 30.05 in 10.0 mi WNW 21.9 mph 28.8 mph N/A   Clear
11:55 AM 50.0 °F - 37.4 °F 62% 30.05 in 10.0 mi WNW 16.1 mph 28.8 mph N/A   Clear
12:15 PM 51.8 °F - 37.4 °F 58% 30.06 in 10.0 mi WNW 18.4 mph 28.8 mph N/A   Clear
12:35 PM 51.8 °F - 37.4 °F 58% 30.05 in 10.0 mi WNW 20.7 mph 27.6 mph N/A   Clear
12:55 PM 53.6 °F - 35.6 °F 51% 30.05 in 10.0 mi WNW 16.1 mph 26.5 mph N/A   Clear
1:15 PM 53.6 °F - 35.6 °F 51% 30.05 in 10.0 mi NW 20.7 mph - N/A   Clear
1:35 PM 53.6 °F - 33.8 °F 47% 30.06 in 10.0 mi WNW 19.6 mph 34.5 mph N/A   Clear
1:55 PM 53.6 °F - 35.6 °F 51% 30.06 in 10.0 mi WNW 15.0 mph 27.6 mph N/A   Clear
2:15 PM 53.6 °F - 35.6 °F 51% 30.06 in 10.0 mi WNW 17.3 mph 24.2 mph N/A   Clear
2:35 PM 53.6 °F - 35.6 °F 51% 30.07 in 10.0 mi WNW 18.4 mph 26.5 mph N/A   Clear
2:55 PM 55.4 °F - 33.8 °F 44% 30.08 in 10.0 mi WNW 17.3 mph 27.6 mph N/A   Clear
3:15 PM 55.4 °F - 35.6 °F 47% 30.08 in 10.0 mi West 13.8 mph 24.2 mph N/A   Clear
3:35 PM 53.6 °F - 33.8 °F 47% 30.08 in 10.0 mi WNW 16.1 mph 26.5 mph N/A   Clear
3:55 PM 53.6 °F - 33.8 °F 47% 30.09 in 10.0 mi WNW 21.9 mph 32.2 mph N/A   Clear
4:15 PM 53.6 °F - 33.8 °F 47% 30.10 in 10.0 mi WNW 16.1 mph 32.2 mph N/A   Clear
4:35 PM 51.8 °F - 33.8 °F 50% 30.11 in 10.0 mi WNW 15.0 mph 28.8 mph N/A   Clear
4:55 PM 50.0 °F - 33.8 °F 54% 30.12 in 10.0 mi WNW 17.3 mph 27.6 mph N/A   Clear
5:15 PM 48.2 °F - 33.8 °F 58% 30.13 in 10.0 mi WNW 15.0 mph - N/A   Clear
5:35 PM 48.2 °F - 33.8 °F 58% 30.14 in 10.0 mi WNW 10.4 mph 20.7 mph N/A   Clear
5:55 PM 46.4 °F 41.9 °F 33.8 °F 62% 30.15 in 10.0 mi WNW 9.2 mph - N/A   Clear
6:15 PM 46.4 °F 41.9 °F 33.8 °F 62% 30.17 in 10.0 mi WNW 9.2 mph - N/A   Clear
6:35 PM 46.4 °F 40.1 °F 32.0 °F 57% 30.18 in 10.0 mi NW 15.0 mph 24.2 mph N/A   Clear
6:55 PM 44.6 °F 37.2 °F 32.0 °F 61% 30.18 in 10.0 mi NW 17.3 mph - N/A   Clear
7:15 PM 44.6 °F 38.4 °F 32.0 °F 61% 30.19 in 10.0 mi WNW 12.7 mph 18.4 mph N/A   Clear
7:35 PM 42.8 °F 37.0 °F 32.0 °F 66% 30.19 in 10.0 mi WNW 10.4 mph 17.3 mph N/A   Clear
8:35 PM 42.8 °F 37.0 °F 32.0 °F 66% 30.22 in 10.0 mi WNW 10.4 mph - N/A   Clear
8:55 PM 41.0 °F 34.7 °F 32.0 °F 70% 30.24 in 10.0 mi WNW 10.4 mph 17.3 mph N/A   Clear
9:15 PM 41.0 °F 34.3 °F 32.0 °F 70% 30.24 in 10.0 mi NW 11.5 mph - N/A   Clear
9:35 PM 41.0 °F 34.3 °F 32.0 °F 70% 30.25 in 10.0 mi WNW 11.5 mph - N/A   Clear
9:55 PM 39.2 °F 32.0 °F 30.2 °F 70% 30.26 in 10.0 mi NW 11.5 mph 17.3 mph N/A   Clear
10:15 PM 39.2 °F 32.0 °F 28.4 °F 65% 30.26 in 10.0 mi NW 11.5 mph - N/A   Clear
10:35 PM 37.4 °F 29.8 °F 28.4 °F 70% 30.27 in 10.0 mi NW 11.5 mph - N/A   Clear
10:55 PM 37.4 °F 28.9 °F 28.4 °F 70% 30.27 in 10.0 mi NW 13.8 mph - N/A   Clear
11:15 PM 37.4 °F 29.3 °F 28.4 °F 70% 30.28 in 10.0 mi NW 12.7 mph - N/A   Clear
11:35 PM 35.6 °F 28.0 °F 28.4 °F 75% 30.28 in 10.0 mi WNW 10.4 mph - N/A   Clear
11:55 PM 35.6 °F 28.0 °F 28.4 °F 75% 30.29 in 10.0 mi WNW 10.4 mph - N/A   Clear